Temperature
20 19 19 19 19 19 19 19 19 19 19 19 19 19 19 19 19 19 18 18 18 18 18 18 18 18 18 18 18 18 18 18 18 18 18 18 17 17 17 17 17 16 17
20 19 19 19 19 19 19 19 19 19 19 19 19 19 19 19 18 18 18 18 18 18 18 18 18 18 18 18 18 18 18 18 18 18 17 17 17 17 17 17 17 17 17
20 19 19 19 19 19 19 19 19 19 19 19 19 19 18 18 18 18 18 18 18 18 18 18 18 18 18 18 18 18 17 17 17 17 17 17 17 17 17 17 17 17 17
20 19 19 19 19 19 19 19 19 19 19 19 19 18 18 18 18 18 18 18 18 18 18 18 18 18 18 18 18 18 17 17 17 17 17 17 16 17 17 17 17 17 17
20 19 19 19 19 19 19 19 19 19 19 19 19 18 18 18 18 18 18 18 18 18 18 18 18 18 18 18 17 17 17 17 17 17 17 16 16 17 17 17 17 17 17
20 19 19 19 19 19 19 19 19 19 19 19 18 18 18 18 18 18 18 18 18 18 18 18 18 18 18 17 17 17 17 17 17 17 16 16 17 17 17 17 17 17 17
20 20 19 19 19 19 19 19 19 19 19 18 18 18 18 18 18 18 18 18 18 18 18 18 18 18 17 17 17 17 17 17 17 17 16 16 17 17 17 17 17 17 17
20 20 19 19 19 19 19 19 19 19 18 18 18 18 18 18 18 18 18 18 18 18 18 18 18 18 17 17 17 17 17 17 17 17 17 16 17 17 17 17 17 17 17
20 20 19 18 19 19 19 19 19 18 18 18 18 18 18 18 18 18 18 18 17 17 17 17 17 17 17 17 17 17 17 17 17 17 17 16 17 17 17 17 17 17 17
20 20 19 19 18 18 18 19 19 18 18 18 18 18 18 18 18 18 17 18 18 17 17 17 17 17 17 17 17 17 17 17 17 17 17 17 17 17 17 17 17 17 17
19 19 19 19 18 18 18 18 18 18 18 18 18 18 18 17 17 17 17 17 17 17 17 17 17 17 17 17 17 17 17 17 17 17 16 17 17 17 17 17 17 17 16
19 19 19 19 18 19 18 18 18 18 18 17 17 17 17 17 17 17 17 18 17 17 17 17 17 17 17 17 17 17 17 17 17 17 17 17 17 17 17 17 17 16 16
20 19 19 19 18 19 18 18 18 18 17 17 17 17 17 17 17 17 17 17 17 17 17 17 17 17 17 17 17 17 17 17 17 17 17 17 17 17 17 17 16 16 16
20 19 19 18 18 18 18 18 18 18 18 18 17 17 17 17 17 17 17 17 17 17 17 17 17 17 17 17 17 17 17 17 17 17 17 17 17 17 17 17 16 16 16
20 19 19 19 18 18 18 18 18 18 18 18 17 17 17 17 17 17 17 17 17 17 17 17 17 17 17 17 17 17 17 17 17 17 17 17 17 17 17 17 16 16 16
19 19 19 19 19 19 19 18 18 18 18 18 17 17 17 17 17 17 17 17 17 17 17 17 17 17 17 17 17 17 17 17 16 16 17 17 17 17 17 17 16 16 16
20 20 20 20 19 19 18 18 18 18 18 18 17 17 17 17 17 17 17 17 17 17 17 17 17 17 17 17 17 17 17 17 17 16 16 16 17 17 17 17 17 16 16
20 20 20 19 19 19 19 18 18 18 18 18 18 17 17 17 17 17 17 17 17 17 17 17 17 17 17 17 17 17 17 17 17 17 17 16 16 16 17 17 17 17 16
20 20 20 19 19 19 18 18 18 18 18 18 18 18 17 17 17 17 17 17 17 17 17 17 17 17 17 17 17 17 17 17 17 17 17 16 16 16 16 17 17 17 17
20 20 20 20 19 19 18 18 18 18 18 17 18 18 17 17 17 17 17 17 17 17 17 17 17 17 17 17 18 17 17 17 17 17 17 17 16 16 16 16 16 16 17
20 20 20 19 19 19 19 18 18 18 18 18 18 18 17 17 17 17 17 17 17 17 17 17 17 17 17 17 17 18 17 17 17 17 17 17 17 17 16 16 16 16 16
20 20 20 20 19 19 19 18 18 18 17 18 18 18 18 17 17 17 17 17 17 17 17 17 17 17 17 17 17 18 18 18 17 18 17 17 17 17 17 17 16 16 16
20 20 20 19 19 19 19 18 18 18 18 18 18 18 18 17 17 17 17 17 17 17 17 17 17 17 17 17 17 18 18 19 19 18 17 17 17 17 17 17 16 16 16
20 20 20 20 19 19 19 18 18 18 18 18 18 18 17 17 17 17 17 17 17 17 17 17 17 17 17 17 17 17 17 18 18 18 18 18 17 17 17 17 17 16 16
20 20 20 20 19 19 19 18 18 18 18 18 17 17 17 17 17 17 17 17 17 17 17 17 17 17 17 17 17 17 17 17 17 18 18 18 17 17 17 17 17 16 16
20 20 20 19 19 19 19 18 18 18 18 18 17 17 17 17 17 17 17 17 17 17 17 17 17 17 17 17 17 17 17 17 18 18 18 18 17 17 17 17 16 16 16
Wind_Speed
12 14 14 12 13 13 14 15 15 15 15 15 15 14 14 13 13 12 12 11 11 12 12 12 13 12 13 12 12 12 11 11 12 13 13 14 13 14 14 14 13 14 15
15 16 15 13 13 14 14 15 15 15 15 14 14 14 13 13 12 12 11 11 11 12 12 12 12 13 13 12 12 12 12 12 13 13 13 14 13 14 13 12 11 14 15
17 17 16 14 14 14 14 14 15 15 14 14 13 13 13 12 12 11 11 11 12 12 12 12 12 13 13 12 12 12 12 12 12 12 11 13 14 13 13 13 15 16 14
17 17 16 16 14 14 14 14 14 14 14 13 13 12 12 11 11 11 11 11 11 12 12 12 12 13 12 12 12 12 12 11 11 9 9 12 13 14 13 14 15 15 14
16 16 17 15 14 14 14 13 13 13 13 12 12 12 11 11 11 11 11 11 11 11 12 12 12 12 12 12 12 12 12 11 9 6 10 11 12 14 13 13 14 14 14
15 16 18 15 14 14 13 13 12 12 12 12 11 11 11 11 10 11 11 11 11 11 11 12 12 12 12 12 12 12 11 9 8 9 10 10 13 13 13 13 13 14 14
15 15 18 15 14 13 13 12 12 12 11 11 11 11 11 11 11 11 11 11 11 11 11 12 12 12 12 12 12 11 9 5 6 10 10 11 13 13 12 13 13 13 13
14 15 17 15 13 12 12 12 12 11 11 11 11 10 11 11 11 11 11 11 11 11 11 11 11 12 11 11 11 10 7 5 8 9 9 12 13 12 12 12 12 12 12
13 14 15 16 14 12 11 11 11 11 10 10 10 10 11 11 11 11 11 11 11 11 11 11 11 11 11 11 10 9 6 1 7 8 9 11 12 11 11 11 11 11 11
11 12 13 13 13 13 13 11 11 10 10 10 10 10 11 11 11 10 11 11 10 11 11 11 11 11 11 10 10 9 7 5 7 8 8 12 11 10 11 10 10 11 11
11 10 11 11 11 11 11 13 12 11 10 10 11 11 9 9 10 10 12 11 10 10 10 10 10 10 10 11 10 8 7 4 7 6 8 13 10 10 10 10 10 10 10
14 12 9 9 10 10 9 11 9 10 10 8 8 9 7 7 6 9 12 10 10 10 10 10 9 10 8 9 10 9 5 5 6 7 9 11 9 9 9 9 9 9 9
14 12 11 10 9 9 8 8 7 6 8 8 8 7 6 6 7 8 8 9 9 10 8 10 8 6 5 5 5 5 4 4 4 6 10 10 8 8 8 8 8 8 9
13 13 11 9 8 7 7 7 7 6 6 7 8 7 7 5 5 6 5 6 6 6 5 5 4 4 4 5 4 4 4 3 4 5 9 9 8 8 8 8 8 8 8
13 13 11 9 8 7 6 6 6 6 6 7 7 7 6 6 5 5 4 4 4 5 6 4 4 4 4 5 4 4 3 3 3 4 8 9 8 8 8 8 8 8 8
13 13 12 11 10 8 7 6 5 6 6 6 6 7 6 5 5 5 5 4 3 4 3 3 4 4 4 4 3 3 3 4 3 3 5 9 9 8 8 9 9 9 9
13 13 12 12 11 9 8 7 6 6 7 6 5 6 7 6 5 5 4 4 4 4 4 4 3 3 4 4 3 3 3 3 3 3 3 5 9 11 10 9 9 9 9
12 12 12 11 12 10 8 7 6 6 6 6 6 7 7 6 6 5 5 5 4 4 4 3 4 3 3 3 3 3 3 3 4 4 5 5 4 6 10 11 10 10 10
12 13 13 12 12 11 10 7 6 5 6 7 7 7 7 7 7 7 5 4 5 5 4 5 4 3 3 3 3 3 3 4 4 5 4 5 5 5 6 11 11 10 10
11 12 13 13 12 11 9 7 6 6 6 7 7 6 7 8 9 8 6 6 7 5 4 4 3 3 3 4 3 2 3 4 4 4 5 5 6 6 6 7 9 11 11
11 12 13 14 13 11 9 9 8 8 7 7 7 7 8 9 8 8 6 6 6 5 5 6 5 5 5 4 3 3 4 5 5 5 5 4 5 6 6 6 6 6 9
12 12 13 14 14 13 10 9 7 7 7 7 6 7 9 9 9 9 8 7 7 6 7 7 6 5 5 5 4 4 4 5 5 5 5 5 5 5 6 7 7 6 6
12 13 12 14 14 13 12 9 7 6 5 6 7 7 8 9 10 9 9 8 7 7 7 8 8 8 6 5 5 4 4 3 2 4 5 5 4 4 5 5 6 5 5
11 11 12 12 12 12 12 11 11 9 9 8 7 7 7 9 10 10 10 9 8 7 6 8 8 7 7 6 5 6 5 4 3 2 4 4 4 4 4 4 4 4 4
9 9 10 11 11 11 11 12 11 10 8 7 6 7 7 8 9 10 10 8 8 7 7 8 7 8 7 8 6 6 6 5 6 5 3 2 2 3 3 3 2 2 2
8 9 9 10 11 11 11 11 11 11 9 8 8 7 7 7 8 9 9 8 8 7 7 8 8 9 8 8 7 6 6 5 6 5 5 4 3 2 2 1 1 1 2
Wind_Direction
144 136 132 129 123 120 117 117 118 120 122 122 121 120 120 118 115 113 112 111 111 110 109 109 110 110 109 109 110 111 111 114 114 113 112 111 114 117 118 122 125 115 113
141 136 135 132 125 121 119 118 118 119 119 120 121 121 120 119 116 114 112 111 112 112 110 108 108 110 108 108 109 110 112 113 115 116 118 116 116 116 119 117 107 112 120
140 137 140 135 129 124 122 120 119 121 121 120 120 120 120 120 118 115 114 113 113 112 110 110 109 110 110 110 109 110 112 116 118 124 134 123 117 116 115 111 110 119 120
141 141 141 135 132 128 125 123 123 122 122 122 122 121 122 120 119 117 115 113 113 114 114 112 111 111 112 111 109 109 112 117 124 149 131 118 118 116 116 116 118 119 119
140 138 133 140 136 132 128 126 124 122 123 124 124 123 123 122 121 118 115 114 113 116 116 115 112 111 110 110 110 110 113 122 140 142 107 109 111 116 117 118 120 120 120
143 143 136 143 139 136 132 129 127 126 125 125 124 123 122 122 120 118 116 114 114 115 118 119 115 112 110 111 111 112 117 138 161 113 110 113 112 117 118 119 119 120 121
148 142 138 143 140 137 136 133 131 129 127 125 123 122 121 119 117 118 117 115 115 116 119 118 117 116 113 113 112 113 120 150 122 112 114 108 108 117 118 118 119 121 121
148 143 137 143 143 143 139 137 136 132 129 126 125 122 119 117 116 116 116 116 117 117 118 118 117 117 117 115 115 117 129 169 122 111 110 107 109 118 119 118 120 122 122
153 147 148 153 152 149 144 142 138 134 132 129 128 125 121 119 118 117 117 118 119 118 118 119 119 119 119 118 118 121 126 180 122 117 116 110 117 121 122 120 121 124 124
157 154 155 161 155 158 153 147 140 137 136 133 130 128 127 127 126 129 129 121 121 121 120 119 119 120 120 122 123 128 148 196 123 124 114 113 123 126 127 125 125 125 125
165 164 166 158 160 164 155 147 152 146 144 150 142 139 153 145 136 140 115 121 123 123 122 120 121 126 131 132 132 147 181 151 114 109 103 113 129 131 130 129 130 131 131
170 171 169 166 167 169 156 152 163 161 155 163 143 149 144 126 126 120 123 128 127 126 128 124 129 152 167 142 146 177 159 129 127 121 112 124 136 139 139 139 139 139 138
171 173 173 175 176 170 162 163 163 158 153 157 145 144 134 142 138 136 138 141 145 153 142 141 163 149 131 122 144 141 129 134 123 122 122 137 146 149 148 147 148 148 149
173 175 176 173 177 181 174 165 171 169 166 160 150 162 154 153 150 139 153 150 158 144 136 143 137 124 122 134 136 129 143 148 133 120 126 146 155 160 159 157 158 159 160
177 176 175 175 177 179 181 187 176 173 172 163 161 166 170 166 161 152 147 156 162 141 152 155 146 135 142 145 149 146 140 131 130 135 134 152 166 170 172 171 174 175 176
181 179 174 176 182 184 189 193 183 179 177 179 175 170 184 179 165 166 165 168 166 161 146 158 148 161 170 149 152 154 170 155 144 169 152 157 173 182 185 185 186 185 188
183 181 178 177 184 188 196 196 191 189 183 190 183 178 189 193 176 186 174 181 175 167 165 181 172 177 182 171 164 170 180 181 162 188 185 173 173 181 191 195 196 196 195
183 182 182 185 187 188 195 200 198 196 190 196 198 191 196 198 193 204 197 190 180 190 188 182 199 188 186 189 185 194 186 180 185 197 202 201 196 181 182 191 201 204 206
186 185 185 190 190 190 190 199 206 199 205 206 205 204 199 204 203 209 210 191 196 200 203 211 188 210 199 202 202 197 204 199 190 204 205 203 201 211 190 177 194 206 213
188 188 187 189 192 190 189 192 204 208 211 213 212 208 209 209 209 216 211 200 209 205 210 217 205 222 227 223 234 203 214 212 210 206 218 204 203 210 211 197 194 201 209
188 190 191 192 191 190 191 193 200 205 209 213 215 212 216 218 213 220 227 200 215 215 220 215 215 212 222 219 231 223 218 221 215 211 222 224 211 212 213 211 220 213 198
191 194 193 194 193 195 197 199 205 208 211 212 214 211 218 220 220 218 224 223 216 217 221 224 224 236 228 217 237 244 228 208 213 213 207 213 220 210 213 214 215 220 235
194 196 195 196 195 197 197 198 200 200 209 210 211 212 218 220 223 229 224 229 228 228 221 222 223 229 236 228 236 251 262 249 206 192 210 214 216 216 222 220 218 207 213
193 194 195 194 195 197 196 201 202 205 210 213 212 210 215 222 227 228 227 227 229 234 229 229 224 228 235 238 226 241 263 296 275 224 205 197 204 218 228 230 217 201 209
187 187 189 191 193 194 198 203 209 215 218 219 215 213 218 222 228 229 226 224 224 232 234 238 232 231 231 239 239 232 234 237 249 261 249 214 202 207 203 211 219 198 191
177 180 178 184 191 194 197 203 210 216 219 221 219 218 219 220 222 222 224 223 223 227 229 232 233 231 234 240 248 244 236 239 244 246 250 239 217 192 168 170 195 179 170
Height
1539 1540 1539 1542 1543 1545 1546 1547 1548 1549 1550 1551 1552 1553 1554 1555 1556 1557 1558 1558 1559 1560 1561 1562 1563 1564 1564 1565 1566 1566 1567 1568 1568 1569 1569 1570 1571 1572 1572 1573 1574 1576 1576
1539 1540 1541 1543 1545 1546 1548 1549 1550 1551 1552 1553 1554 1555 1556 1557 1558 1559 1560 1560 1561 1562 1563 1564 1564 1565 1566 1567 1567 1568 1569 1569 1570 1571 1571 1572 1573 1574 1574 1575 1577 1578 1578
1540 1541 1543 1545 1547 1548 1550 1551 1552 1553 1554 1555 1556 1557 1558 1559 1560 1561 1561 1562 1563 1564 1564 1565 1566 1567 1568 1568 1569 1570 1570 1571 1572 1573 1574 1575 1575 1576 1576 1577 1578 1579 1580
1542 1544 1545 1546 1548 1550 1552 1553 1554 1555 1556 1557 1558 1559 1560 1561 1561 1562 1563 1564 1564 1565 1566 1567 1568 1569 1569 1570 1571 1571 1572 1573 1574 1575 1577 1578 1578 1578 1579 1580 1581 1582 1583
1544 1546 1546 1548 1550 1552 1553 1555 1556 1557 1558 1559 1559 1560 1561 1562 1563 1564 1565 1565 1566 1567 1567 1568 1569 1570 1571 1572 1572 1573 1574 1575 1576 1578 1579 1579 1579 1580 1581 1582 1583 1584 1585
1546 1548 1548 1550 1552 1554 1555 1556 1557 1558 1559 1560 1561 1562 1563 1564 1565 1565 1566 1567 1568 1568 1569 1570 1571 1572 1573 1574 1574 1575 1576 1577 1579 1581 1581 1582 1582 1582 1583 1584 1585 1586 1587
1548 1550 1550 1551 1554 1555 1557 1558 1559 1560 1561 1562 1563 1564 1564 1565 1566 1567 1568 1568 1569 1570 1571 1572 1573 1574 1575 1575 1576 1577 1578 1579 1582 1583 1583 1584 1583 1584 1585 1586 1587 1588 1589
1550 1552 1551 1553 1555 1557 1558 1559 1560 1561 1562 1563 1564 1565 1566 1567 1568 1569 1569 1570 1571 1572 1572 1573 1575 1575 1576 1577 1578 1579 1580 1581 1584 1585 1585 1585 1585 1586 1587 1588 1589 1590 1590
1551 1553 1554 1555 1556 1558 1559 1561 1562 1563 1564 1565 1566 1567 1567 1568 1569 1570 1571 1572 1572 1573 1574 1575 1576 1577 1578 1579 1580 1581 1582 1583 1586 1586 1587 1587 1587 1588 1588 1589 1590 1591 1592
1552 1554 1556 1558 1559 1561 1561 1562 1563 1564 1565 1566 1567 1568 1569 1570 1571 1572 1573 1573 1574 1575 1576 1577 1578 1579 1580 1581 1582 1583 1584 1585 1588 1588 1589 1588 1588 1589 1590 1591 1592 1592 1593
1552 1555 1557 1559 1561 1563 1564 1563 1564 1565 1566 1568 1569 1569 1571 1573 1573 1574 1574 1575 1576 1577 1578 1579 1580 1581 1582 1583 1583 1584 1585 1588 1589 1590 1590 1589 1589 1590 1591 1592 1593 1594 1595
1551 1554 1557 1560 1561 1564 1565 1565 1566 1568 1568 1569 1570 1571 1573 1573 1575 1576 1575 1576 1578 1579 1580 1581 1582 1583 1584 1585 1586 1586 1588 1589 1590 1591 1590 1590 1590 1591 1592 1593 1594 1595 1596
1551 1554 1556 1559 1561 1563 1564 1565 1567 1569 1569 1570 1571 1572 1573 1575 1576 1577 1578 1578 1579 1581 1582 1582 1584 1586 1587 1587 1588 1589 1590 1591 1591 1592 1591 1590 1591 1592 1593 1594 1595 1595 1596
1550 1553 1556 1558 1560 1562 1564 1566 1567 1569 1570 1571 1571 1572 1574 1576 1577 1578 1579 1580 1581 1583 1583 1585 1585 1586 1587 1588 1589 1589 1590 1591 1592 1592 1591 1591 1592 1593 1593 1594 1595 1596 1597
1549 1551 1554 1556 1558 1560 1562 1564 1567 1568 1570 1571 1571 1573 1574 1576 1578 1578 1579 1580 1583 1583 1584 1585 1586 1586 1587 1588 1589 1590 1590 1591 1592 1592 1592 1591 1592 1593 1593 1594 1595 1596 1597
1547 1549 1552 1554 1557 1559 1561 1563 1565 1568 1568 1571 1572 1573 1574 1576 1578 1579 1579 1581 1583 1584 1585 1586 1587 1587 1588 1589 1589 1590 1591 1591 1591 1592 1593 1592 1592 1593 1593 1594 1595 1596 1597
1545 1547 1550 1552 1556 1558 1560 1562 1564 1566 1568 1570 1572 1572 1574 1576 1577 1579 1580 1581 1583 1584 1584 1585 1586 1587 1588 1589 1589 1590 1591 1591 1591 1592 1593 1593 1593 1592 1593 1593 1594 1595 1596
1543 1546 1548 1552 1554 1556 1559 1561 1563 1565 1567 1569 1571 1572 1573 1575 1576 1578 1580 1582 1582 1583 1585 1585 1587 1587 1588 1589 1589 1590 1590 1590 1590 1591 1592 1592 1593 1594 1593 1593 1593 1594 1595
1542 1544 1547 1550 1552 1554 1557 1559 1561 1563 1565 1567 1569 1571 1572 1574 1576 1577 1579 1580 1581 1583 1584 1585 1586 1587 1588 1588 1589 1589 1589 1590 1590 1590 1591 1591 1591 1592 1593 1592 1592 1593 1594
1540 1542 1545 1547 1550 1552 1555 1556 1559 1561 1563 1565 1567 1569 1571 1573 1575 1577 1578 1579 1581 1582 1583 1584 1585 1585 1586 1587 1588 1588 1589 1589 1589 1589 1590 1590 1590 1591 1592 1592 1592 1592 1592
1538 1540 1542 1544 1547 1550 1552 1554 1556 1559 1561 1563 1565 1567 1569 1571 1573 1575 1577 1578 1579 1580 1581 1583 1583 1584 1585 1586 1587 1587 1587 1587 1587 1587 1588 1589 1589 1590 1590 1590 1591 1591 1591
1535 1538 1540 1542 1544 1547 1550 1552 1554 1557 1559 1561 1563 1565 1567 1569 1571 1573 1574 1576 1578 1578 1579 1580 1581 1583 1584 1585 1586 1586 1586 1587 1585 1586 1586 1586 1587 1588 1588 1589 1589 1589 1590
1533 1535 1537 1539 1542 1545 1547 1550 1552 1554 1556 1558 1560 1562 1564 1566 1568 1570 1572 1573 1575 1576 1577 1578 1579 1580 1582 1583 1583 1584 1584 1584 1584 1584 1584 1585 1585 1586 1586 1587 1587 1587 1587
1531 1533 1535 1537 1539 1542 1544 1547 1549 1551 1553 1555 1557 1560 1561 1564 1565 1567 1568 1570 1571 1573 1574 1575 1577 1578 1579 1580 1581 1581 1582 1582 1582 1582 1582 1582 1583 1583 1584 1585 1586 1586 1586
1530 1532 1533 1535 1537 1539 1542 1544 1546 1549 1551 1553 1555 1556 1558 1560 1562 1563 1565 1566 1568 1569 1571 1572 1573 1575 1576 1577 1578 1579 1579 1580 1580 1581 1580 1581 1581 1581 1581 1582 1583 1584 1584
1529 1530 1531 1533 1535 1537 1539 1541 1543 1546 1548 1550 1552 1554 1555 1557 1558 1560 1561 1563 1564 1566 1567 1568 1570 1571 1572 1573 1574 1576 1576 1577 1577 1578 1578 1578 1578 1579 1579 1580 1580 1581 1581